Back to catalog

HULIANWANG DIGUI-151

AliveCommunicationsLEO
NORAD 67527·PAYLOAD·🇨🇳 China

Launched Jan 19, 2026 from Wenchang Space Launch Site

Loading…

Next Passes (next 24 hours)

TLE

FreshSource: Space-Track

Epoch: Sep 14, 2026, 10:31 UTC

1 67527U 26013F   26257.43860968 -.00000104  00000-0  44199-4 0  9992
2 67527  50.0102  35.5426 0000816  87.0919 273.0046 13.29329973 31926

Track HULIANWANG DIGUI-151 in real time with AllMySat

Download on the App Store